Temp
18 19 19 19 20 20 21 22 22 23 24 24 25 25 26 26 27 27 28 28 29 28 28 28 27 27 27 26 26 25 22 23 24 23 22 21 20 19 19 18 18 18 18 17 16
18 18 19 19 20 20 21 21 22 23 23 24 24 25 25 26 26 28 28 28 28 28 28 29 28 27 26 25 25 23 22 24 25 23 22 21 20 19 18 18 17 16 17 16 16
18 19 19 19 20 20 21 21 22 23 23 24 24 24 25 25 26 28 29 29 29 28 28 28 28 27 26 24 24 23 23 24 24 23 22 21 20 19 17 18 18 16 16 16 16
18 18 19 19 19 20 20 21 22 22 23 23 23 24 24 24 25 28 28 29 29 29 29 28 28 27 25 25 25 24 25 25 23 23 22 21 20 19 19 18 17 16 16 16 16
17 18 19 19 19 20 20 21 21 22 22 22 23 23 23 24 26 27 27 28 29 29 29 28 28 28 27 26 25 26 25 24 23 23 22 22 20 20 17 18 16 17 16 16 16
17 17 18 19 19 20 20 20 21 22 22 22 22 22 22 21 26 28 28 27 28 29 29 28 29 28 28 27 26 26 24 23 24 23 22 21 21 22 17 17 16 16 16 16 16
16 17 18 18 19 20 20 20 21 21 21 21 22 22 22 25 27 27 28 28 28 28 28 29 29 29 28 27 26 26 23 23 23 23 22 22 21 20 18 18 16 16 16 16 16
16 17 17 18 19 19 20 20 21 21 21 21 22 21 22 26 26 27 27 28 28 28 28 28 28 29 29 28 27 24 22 22 24 24 22 23 21 20 18 18 17 16 16 17 17
14 16 17 18 18 19 20 20 21 21 20 21 21 20 23 25 26 27 27 27 28 28 28 28 29 28 28 23 22 22 22 23 24 24 22 22 21 20 19 18 18 17 17 17 18
14 15 16 17 18 19 20 20 21 21 20 20 20 19 24 26 26 27 27 27 27 28 28 28 28 22 20 22 22 23 23 24 23 23 23 21 21 20 19 19 19 19 18 18 18
14 14 15 17 17 18 20 20 19 19 19 21 22 22 24 24 25 27 27 27 26 27 25 26 24 24 25 24 24 25 25 25 25 25 23 21 22 20 20 19 19 19 19 19 19
13 14 15 16 17 18 19 18 16 15 16 22 22 22 24 23 23 26 27 26 25 23 24 23 23 24 25 24 25 24 24 24 24 25 24 21 22 21 20 20 20 19 20 21 21
12 13 14 15 16 17 18 17 16 16 14 21 23 24 24 24 23 25 26 26 24 23 23 23 26 24 26 25 26 25 25 24 26 24 23 22 22 20 21 21 21 20 21 22 22
11 12 14 15 16 16 16 16 17 17 15 19 20 23 24 25 24 26 26 27 24 22 22 23 24 26 26 26 24 25 24 26 24 23 22 24 22 20 20 21 21 22 21 21 21
9 11 12 13 14 15 16 17 18 17 17 22 21 23 24 26 26 25 26 27 23 23 22 24 24 24 25 25 25 26 27 24 24 22 21 23 23 23 20 20 21 22 22 23 23
8 10 12 12 14 15 16 17 18 16 17 21 23 21 22 24 25 24 26 27 26 24 24 24 25 25 25 26 26 28 25 21 19 20 22 22 22 22 19 23 24 23 23 24 24
8 9 10 12 14 14 15 17 15 15 20 21 21 20 21 21 24 23 23 23 22 22 22 24 25 25 28 27 26 24 22 20 22 22 22 20 22 22 23 23 25 24 24 24 24
7 9 11 12 13 14 14 13 14 17 18 21 23 20 21 22 23 23 22 23 22 21 18 21 24 24 26 25 25 23 22 21 25 21 23 21 22 25 25 26 26 26 27 25 24
6 9 12 13 13 13 13 11 17 16 19 21 23 22 21 23 23 23 21 23 24 20 22 19 22 24 26 26 26 24 24 22 19 18 21 21 23 24 24 23 23 25 25 25 25
5 8 11 11 13 13 9 13 15 17 20 21 21 21 20 21 23 22 20 22 23 22 23 22 24 25 28 27 26 26 23 24 19 23 24 22 24 24 26 25 23 22 25 26 26
5 6 9 10 10 11 9 8 15 18 19 20 20 21 21 22 21 21 20 24 24 22 22 19 21 25 25 25 24 24 23 19 19 19 21 22 22 21 23 24 23 23 26 27 27
4 2 8 8 7 5 6 11 17 17 19 19 20 20 22 21 21 20 20 24 26 22 22 21 19 22 24 25 24 24 23 21 21 22 17 20 22 23 20 22 23 25 27 27 27
3 4 7 7 6 5 7 12 15 17 17 18 19 20 20 21 22 22 22 25 25 22 21 20 19 20 22 23 24 26 23 19 17 17 18 21 22 22 21 23 23 25 27 27 27
3 1 6 7 6 7 7 11 14 17 16 17 18 19 20 20 20 21 22 23 24 24 25 24 17 21 22 23 23 26 24 21 21 19 19 20 24 23 22 22 22 23 24 25 25
2 1 3 2 4 4 5 7 12 14 16 16 17 17 18 19 20 20 20 22 24 22 21 21 21 19 21 24 24 25 26 22 23 22 24 23 22 22 21 21 21 22 20 21 23
3 2 3 3 3 4 6 9 11 14 14 15 15 16 15 16 18 19 21 22 22 20 20 18 21 19 23 22 23 25 25 23 23 21 24 21 22 21 22 22 21 21 20 20 21
2 3 4 3 2 4 5 6 8 8 13 15 16 16 15 15 19 21 21 20 20 21 19 19 17 18 21 22 22 22 24 23 24 23 23 22 24 17 19 20 21 19 19 19 20
Height
1522 1521 1519 1517 1516 1514 1512 1511 1509 1508 1507 1507 1506 1506 1506 1505 1504 1504 1504 1507 1506 1508 1507 1508 1508 1507 1507 1507 1506 1507 1516 1524 1519 1522 1523 1525 1525 1530 1532 1534 1535 1536 1538 1542 1546
1521 1519 1518 1517 1515 1513 1512 1510 1508 1507 1506 1505 1505 1504 1504 1504 1503 1502 1505 1505 1506 1508 1508 1508 1508 1508 1508 1508 1508 1507 1518 1515 1510 1513 1519 1524 1526 1529 1534 1536 1538 1539 1542 1545 1548
1520 1518 1517 1515 1514 1512 1510 1509 1507 1505 1504 1503 1503 1503 1503 1503 1503 1499 1500 1502 1505 1506 1507 1507 1507 1507 1507 1508 1507 1507 1515 1508 1510 1514 1520 1524 1527 1529 1533 1537 1538 1539 1542 1545 1549
1518 1517 1515 1514 1512 1511 1509 1507 1505 1504 1502 1502 1501 1501 1501 1502 1508 1498 1497 1499 1502 1504 1505 1505 1506 1507 1507 1507 1507 1510 1507 1511 1515 1516 1523 1526 1529 1532 1533 1535 1538 1542 1545 1546 1549
1516 1515 1513 1511 1510 1509 1507 1505 1503 1501 1500 1500 1499 1499 1499 1500 1496 1498 1498 1498 1500 1503 1504 1505 1506 1506 1506 1506 1507 1509 1510 1513 1517 1521 1525 1529 1531 1533 1538 1539 1541 1544 1547 1549 1550
1515 1513 1511 1509 1507 1506 1505 1503 1501 1499 1498 1497 1497 1497 1498 1498 1494 1495 1497 1499 1500 1502 1503 1506 1506 1504 1504 1505 1505 1507 1512 1518 1523 1527 1530 1530 1534 1535 1543 1543 1545 1546 1548 1550 1551
1512 1510 1508 1506 1505 1503 1502 1500 1499 1497 1496 1495 1494 1494 1494 1488 1490 1492 1494 1497 1499 1501 1503 1505 1505 1505 1503 1504 1508 1509 1522 1524 1528 1529 1532 1534 1539 1540 1540 1544 1546 1548 1548 1549 1551
1509 1507 1505 1504 1502 1500 1500 1497 1496 1495 1494 1493 1492 1492 1488 1485 1485 1488 1491 1494 1497 1499 1501 1504 1504 1504 1504 1508 1512 1518 1525 1541 1531 1530 1535 1537 1547 1542 1543 1543 1546 1548 1548 1549 1549
1506 1504 1502 1501 1499 1497 1497 1495 1493 1492 1492 1491 1491 1490 1484 1481 1482 1486 1489 1492 1495 1497 1499 1501 1503 1505 1506 1515 1528 1528 1543 1539 1536 1530 1532 1539 1544 1541 1543 1543 1544 1546 1548 1549 1550
1504 1501 1499 1498 1496 1495 1494 1492 1490 1489 1490 1490 1490 1492 1481 1480 1480 1483 1487 1491 1493 1495 1498 1499 1500 1507 1515 1522 1547 1537 1539 1536 1538 1529 1531 1538 1540 1539 1541 1543 1542 1544 1548 1550 1549
1501 1499 1497 1495 1493 1492 1492 1490 1492 1491 1487 1484 1483 1480 1478 1479 1479 1482 1485 1489 1492 1494 1499 1498 1508 1515 1508 1514 1515 1521 1528 1531 1525 1522 1530 1536 1536 1538 1539 1542 1542 1542 1545 1547 1547
1498 1496 1494 1493 1492 1491 1490 1489 1490 1495 1486 1478 1477 1477 1476 1479 1480 1479 1483 1488 1490 1496 1496 1504 1512 1502 1503 1509 1517 1523 1531 1533 1525 1520 1527 1535 1537 1534 1536 1536 1541 1542 1543 1543 1545
1495 1493 1491 1491 1490 1491 1489 1490 1490 1491 1489 1472 1469 1469 1472 1475 1477 1475 1479 1483 1487 1495 1496 1504 1502 1496 1502 1510 1514 1518 1522 1524 1525 1523 1527 1531 1540 1537 1534 1536 1538 1539 1540 1541 1541
1492 1490 1488 1488 1491 1488 1488 1490 1489 1489 1494 1473 1464 1460 1465 1470 1472 1472 1476 1481 1485 1493 1497 1499 1495 1500 1504 1507 1511 1521 1509 1511 1521 1527 1547 1527 1560 1539 1532 1531 1531 1531 1533 1533 1536
1488 1487 1486 1487 1486 1487 1489 1487 1487 1489 1514 1459 1456 1454 1455 1462 1462 1465 1472 1477 1483 1487 1492 1498 1495 1500 1505 1502 1503 1509 1501 1509 1512 1529 1534 1535 1548 1528 1528 1532 1523 1520 1522 1524 1527
1484 1483 1483 1483 1483 1484 1485 1486 1487 1500 1507 1459 1451 1452 1456 1456 1459 1464 1470 1476 1480 1484 1487 1491 1489 1490 1492 1492 1494 1494 1506 1516 1525 1537 1556 1537 1544 1538 1532 1510 1505 1514 1513 1515 1520
1481 1478 1479 1478 1480 1481 1481 1485 1497 1504 1462 1455 1452 1450 1454 1456 1459 1459 1467 1475 1487 1503 1503 1492 1489 1485 1486 1494 1493 1499 1519 1556 1560 1559 1560 1539 1546 1527 1501 1494 1492 1496 1500 1505 1511
1475 1474 1472 1471 1476 1477 1479 1485 1494 1466 1461 1446 1444 1449 1457 1451 1456 1459 1467 1476 1476 1482 1506 1509 1510 1485 1480 1488 1496 1504 1511 1543 1553 1567 1547 1537 1545 1516 1487 1486 1487 1490 1491 1501 1507
1471 1467 1464 1466 1469 1472 1477 1487 1460 1459 1448 1449 1445 1452 1457 1449 1451 1457 1467 1467 1466 1471 1490 1506 1501 1474 1474 1474 1480 1503 1511 1503 1540 1550 1548 1542 1521 1497 1488 1482 1481 1485 1491 1495 1499
1468 1463 1459 1460 1463 1467 1473 1461 1454 1446 1444 1443 1455 1448 1460 1453 1452 1458 1468 1458 1463 1464 1467 1480 1494 1474 1468 1472 1478 1482 1491 1516 1531 1552 1549 1542 1527 1520 1492 1486 1483 1484 1486 1490 1494
1467 1463 1458 1456 1460 1464 1463 1462 1449 1443 1445 1444 1447 1448 1447 1447 1450 1456 1460 1451 1452 1461 1465 1476 1483 1482 1474 1477 1486 1492 1500 1511 1518 1531 1548 1552 1533 1497 1490 1484 1484 1483 1483 1486 1490
1467 1467 1457 1455 1460 1458 1459 1450 1446 1442 1443 1444 1442 1442 1443 1442 1446 1452 1455 1446 1443 1450 1467 1469 1485 1493 1481 1470 1470 1474 1486 1495 1522 1528 1538 1535 1524 1486 1484 1481 1480 1480 1482 1486 1490
1466 1462 1459 1458 1461 1459 1452 1446 1444 1442 1441 1442 1443 1440 1441 1442 1448 1443 1445 1440 1441 1447 1458 1465 1487 1505 1493 1480 1472 1475 1481 1490 1502 1513 1529 1531 1522 1484 1482 1481 1479 1478 1480 1482 1486
1467 1466 1459 1458 1457 1455 1455 1446 1443 1439 1441 1441 1441 1440 1441 1444 1442 1445 1444 1440 1440 1442 1445 1450 1478 1481 1491 1482 1475 1477 1478 1483 1489 1516 1519 1515 1498 1489 1485 1481 1478 1478 1479 1480 1483
1467 1467 1467 1465 1459 1459 1457 1452 1443 1442 1437 1439 1440 1441 1443 1449 1447 1449 1446 1442 1440 1441 1446 1451 1471 1473 1469 1464 1467 1467 1468 1479 1484 1486 1495 1490 1495 1482 1476 1474 1478 1481 1482 1481 1483
1468 1468 1468 1465 1462 1459 1454 1449 1444 1440 1438 1436 1440 1438 1442 1448 1444 1450 1444 1444 1446 1444 1448 1453 1465 1468 1467 1463 1466 1468 1463 1469 1473 1481 1477 1484 1486 1467 1471 1474 1477 1477 1478 1481 1483
1467 1468 1468 1462 1461 1459 1457 1454 1448 1447 1433 1433 1434 1439 1441 1441 1441 1440 1442 1444 1447 1451 1455 1457 1464 1475 1477 1466 1471 1482 1461 1465 1464 1464 1467 1483 1464 1463 1469 1472 1471 1474 1478 1479 1483
Wind_Speed
11 10 11 11 11 11 10 10 11 11 10 9 9 10 11 12 13 13 12 3 2 0 3 4 3 3 5 2 4 1 4 2 1 4 4 11 4 8 8 11 7 3 16 19 21
11 11 11 11 11 11 12 11 12 11 11 10 10 11 12 13 14 18 12 8 5 2 3 1 2 4 2 2 3 3 3 6 5 6 5 8 7 7 5 9 9 19 19 20 19
10 11 12 12 12 12 12 12 12 12 11 11 11 11 11 11 12 21 16 12 10 9 5 4 5 4 0 2 3 2 5 4 5 12 20 7 7 5 15 4 6 22 24 21 19
12 11 12 12 13 13 13 13 12 12 10 10 10 10 10 7 5 2 5 8 9 9 7 4 2 1 2 3 7 3 7 4 12 15 10 5 12 10 2 5 19 20 23 20 20
14 14 13 13 13 13 13 14 13 12 10 9 9 9 8 8 17 4 2 5 10 10 8 4 3 2 2 1 5 1 4 11 19 16 14 15 10 8 11 16 20 20 19 18 18
16 15 15 14 14 13 13 14 14 13 10 9 10 10 9 6 10 16 15 1 8 10 9 7 3 7 3 3 3 8 20 19 16 13 11 10 8 3 8 18 17 18 17 16 18
18 17 16 17 16 14 13 14 14 14 11 10 10 11 14 22 10 10 14 10 7 9 10 6 0 4 4 4 15 22 9 10 7 9 4 24 2 2 20 19 17 15 16 17 17
18 18 18 17 17 16 13 14 14 14 10 10 10 10 11 9 23 15 12 13 10 9 11 6 1 2 3 13 6 6 6 4 4 7 12 1 1 4 19 20 17 14 15 16 18
18 19 19 18 17 17 14 14 13 12 9 8 7 7 10 7 14 17 13 9 10 9 9 4 1 5 3 6 5 6 4 3 2 11 7 1 2 10 20 19 18 17 17 16 17
20 19 20 18 17 17 14 12 10 7 7 7 9 5 10 3 6 17 13 9 5 5 5 4 3 4 4 5 5 6 4 2 6 8 4 6 5 10 23 19 20 20 19 18 19
20 20 20 18 18 15 12 5 2 3 6 9 3 6 8 6 5 17 15 10 7 3 5 2 4 5 8 6 5 5 6 6 6 5 5 8 5 11 20 20 17 21 22 22 23
21 20 19 17 17 13 5 6 10 4 10 15 24 28 26 20 7 13 18 11 6 4 3 4 6 5 7 7 8 7 6 6 4 4 10 6 4 8 18 22 20 20 24 26 26
21 21 19 16 14 8 1 8 4 8 4 12 18 21 23 15 13 14 21 15 4 5 6 7 5 6 7 5 4 4 5 4 5 4 4 7 2 7 8 17 19 24 28 30 30
22 20 19 15 7 5 6 7 9 8 3 7 7 11 16 12 6 19 20 15 2 10 6 4 4 5 3 3 7 5 7 7 9 7 5 2 4 6 9 13 17 26 29 35 35
23 21 18 14 10 3 5 4 8 6 3 4 5 5 17 17 9 15 26 15 8 6 7 9 7 5 5 8 7 8 3 2 6 6 6 1 3 6 8 11 19 27 33 38 39
22 21 19 15 14 8 9 5 6 4 8 5 7 8 7 8 7 13 17 12 6 5 2 5 2 5 8 4 9 3 6 9 7 4 2 6 5 5 6 16 17 26 33 40 42
20 22 19 19 9 6 4 1 3 5 2 5 6 6 5 7 5 7 11 10 7 5 5 1 5 3 4 4 1 5 6 3 3 2 5 2 5 10 9 13 17 26 39 39 43
26 20 20 22 14 11 5 3 6 8 9 4 1 4 8 5 5 6 12 14 2 6 4 7 3 8 4 9 8 6 8 6 6 5 3 3 5 7 5 16 22 28 39 33 34
25 22 20 16 14 13 8 4 11 6 6 4 3 4 5 4 7 5 9 17 15 9 7 6 6 4 6 5 10 5 3 5 8 3 3 3 7 10 5 5 6 22 25 30 35
25 22 16 7 13 16 4 7 6 4 3 2 9 4 9 6 6 8 10 8 7 8 3 7 2 5 3 6 4 5 7 3 3 5 4 4 4 5 7 6 4 10 26 32 34
19 11 3 5 17 16 5 7 5 8 3 1 4 4 4 6 7 10 11 2 15 9 8 6 3 3 3 5 9 2 2 6 6 4 6 2 6 6 7 6 8 13 25 29 32
8 3 8 15 3 1 4 6 4 4 4 3 1 2 3 1 5 7 9 12 23 13 12 7 4 4 7 1 1 4 7 6 5 4 1 4 6 5 8 9 9 15 20 21 21
12 6 3 7 3 2 5 5 4 4 4 5 4 2 2 3 4 3 5 2 14 10 12 8 2 2 8 5 2 4 4 5 6 4 7 7 5 3 3 5 10 12 15 15 18
5 3 4 7 3 2 5 5 9 9 3 1 2 0 3 1 2 2 2 2 6 13 23 20 5 8 9 6 5 4 5 5 7 5 6 6 5 5 7 9 10 14 16 19 22
2 2 3 4 3 4 1 5 6 5 13 7 3 6 5 4 2 3 2 3 4 7 9 7 8 7 7 8 6 5 5 9 6 6 7 9 11 12 15 16 15 16 16 23 25
2 1 5 8 10 5 1 1 4 11 5 9 6 5 8 7 7 5 4 2 3 7 4 3 4 7 6 8 9 8 9 9 5 4 2 6 6 7 8 14 20 25 24 26 29
1 4 4 6 4 3 1 4 6 9 7 18 8 4 6 7 13 18 15 9 7 2 3 0 6 4 8 3 7 6 17 6 5 5 7 6 12 8 6 13 23 25 25 30 33
Wind_Direction
350 349 344 342 341 336 331 323 317 311 302 295 284 274 271 273 280 280 279 266 224 174 323 3 28 341 333 256 262 329 63 132 240 135 142 141 108 61 109 113 57 68 135 154 151
340 340 338 336 335 331 328 324 319 310 299 293 284 274 270 272 277 269 262 258 267 269 281 350 13 322 259 222 222 93 107 213 168 142 137 130 104 120 98 94 93 107 130 151 156
329 329 330 330 329 328 325 323 319 310 299 289 282 272 267 273 287 268 271 256 251 248 267 321 319 319 99 172 199 157 175 196 110 117 128 117 100 114 124 98 144 139 143 154 159
319 318 319 323 324 325 323 322 319 312 298 288 278 267 261 251 215 159 247 225 217 231 237 287 344 271 230 213 185 128 250 117 115 129 121 114 121 121 0 134 145 146 149 154 171
313 312 311 313 317 318 319 317 316 313 297 288 276 264 256 237 236 212 338 166 193 206 222 257 301 279 284 207 129 306 72 89 125 130 127 124 92 94 91 136 146 146 154 164 172
312 309 308 307 308 311 313 313 313 311 293 287 278 262 242 239 242 245 251 190 182 201 218 219 223 341 277 351 106 112 94 105 114 118 130 109 127 69 128 148 148 155 165 173 182
309 307 304 305 304 304 308 308 308 309 290 286 282 261 247 241 237 232 227 225 173 203 223 218 360 351 317 54 99 101 75 80 112 123 91 128 23 70 157 159 161 170 176 181 187
307 305 303 302 303 301 306 302 303 305 287 284 283 261 249 254 238 235 214 204 208 216 213 196 346 73 49 114 48 73 63 88 234 144 157 333 127 138 172 167 175 184 188 191 195
309 303 302 302 301 300 307 301 301 298 284 278 275 245 264 255 240 214 197 201 218 220 211 206 168 112 100 87 39 21 164 150 197 186 161 70 180 171 190 187 186 191 198 200 203
313 307 302 304 304 303 312 310 304 284 263 268 250 276 256 269 218 200 193 190 156 195 187 195 133 98 45 85 193 192 132 206 196 204 179 157 243 170 190 203 200 199 204 210 215
309 309 303 303 305 311 322 309 289 285 253 226 198 248 274 327 217 197 200 203 207 155 150 90 90 207 202 148 147 138 168 203 219 197 149 192 177 192 192 209 215 209 207 216 220
308 307 306 305 306 317 338 111 79 324 302 257 251 259 258 260 301 210 204 184 165 160 140 49 211 199 107 137 145 146 165 248 299 202 177 161 205 188 196 215 218 209 216 219 222
309 306 307 310 307 305 191 158 17 329 238 282 245 240 242 238 227 231 198 189 138 142 175 165 186 140 133 159 174 201 192 186 180 118 56 122 335 178 215 219 224 227 222 224 221
308 306 306 315 298 309 162 173 304 301 20 266 221 235 207 197 229 222 200 172 169 180 146 225 216 151 124 195 147 256 194 242 151 141 177 156 250 222 209 212 220 223 218 224 225
310 302 303 304 289 302 214 272 301 165 317 238 203 170 178 170 154 193 200 188 165 163 120 233 180 158 178 215 164 225 56 19 160 108 106 304 61 257 170 222 223 224 221 227 229
308 303 296 294 286 273 262 279 149 56 242 291 167 171 142 190 184 146 164 189 158 125 96 199 236 173 194 169 175 125 77 41 51 76 15 193 147 279 185 218 228 219 226 226 230
307 301 291 280 267 253 249 229 85 179 272 247 200 156 184 167 163 156 158 163 157 129 226 219 240 237 163 42 3 88 72 32 37 345 211 153 116 242 237 242 216 203 218 220 226
311 300 285 264 264 254 243 78 205 196 217 303 119 113 183 149 198 172 152 184 230 107 111 158 251 163 182 183 181 174 158 149 184 187 198 38 225 253 242 258 238 221 221 220 216
317 308 285 271 243 222 181 182 209 198 193 191 13 133 219 244 139 138 177 194 195 174 152 142 259 249 191 159 141 185 147 167 102 12 73 209 280 307 259 310 210 205 208 215 222
326 316 287 277 220 193 127 239 212 219 311 156 188 176 191 207 144 151 170 190 196 174 154 202 178 222 154 119 38 140 153 93 14 132 210 272 267 236 326 327 314 188 199 217 224
329 310 290 276 174 178 206 223 262 261 275 19 184 199 198 186 168 175 191 232 179 184 153 149 100 269 121 179 163 109 115 55 110 116 156 172 266 212 241 254 226 224 215 216 220
333 319 334 156 151 243 182 185 230 292 213 286 262 210 206 120 136 174 180 213 197 148 180 189 143 211 205 159 354 146 168 139 132 219 105 141 267 262 258 237 219 225 221 221 222
328 278 227 187 196 266 263 255 234 249 193 195 228 215 350 181 121 154 188 222 189 159 160 176 221 19 336 356 44 174 179 119 115 90 187 141 252 322 266 201 192 193 200 203 206
330 344 319 222 276 4 344 233 214 229 261 52 225 145 103 19 8 123 148 258 12 200 187 158 148 176 207 190 163 173 176 165 131 126 174 210 188 242 218 207 204 182 172 168 175
351 295 4 323 327 331 204 303 206 237 211 191 240 201 152 167 153 200 244 321 34 343 144 140 193 179 218 199 177 216 179 162 162 187 163 223 187 208 202 201 190 182 169 162 163
309 355 333 284 292 297 125 285 282 229 202 220 200 197 185 197 182 174 147 63 284 1 92 25 218 170 242 222 190 221 237 185 163 134 289 124 236 218 204 175 181 183 170 167 164
352 301 309 291 321 312 11 341 306 339 263 238 210 208 223 230 240 250 263 277 260 40 358 46 141 113 234 158 114 270 232 185 183 175 157 168 221 159 155 197 199 186 180 170 168